Dewpoint
76 71 71 73 70 68 68 68 77 74 72 70 70 70 71 67 63 66 62 64 65 56
76 76 71 77 75 68 71 68 74 75 73 72 70 71 71 67 65 63 62 61 62 56
74 77 77 76 76 75 73 72 75 74 74 72 71 71 72 68 65 63 57 57 62 60
73 73 74 72 75 75 74 75 75 74 73 72 72 72 70 68 65 61 61 61 60 59
73 75 72 73 72 73 75 75 75 74 73 72 71 71 70 65 61 60 58 58 58 56
72 72 73 73 74 74 76 75 75 74 73 72 72 71 68 64 61 59 59 58 58 57
74 75 75 76 76 75 77 77 76 75 74 73 71 69 64 60 61 59 59 56 57 56
77 78 78 77 77 78 77 76 76 74 73 71 69 65 61 59 59 60 59 62 56 58
78 78 77 78 77 78 76 75 74 73 72 71 66 61 60 59 57 58 60 60 59 55
75 76 77 77 77 76 75 73 72 72 71 71 65 59 59 59 52 56 58 59 56 52
74 76 77 77 77 75 74 73 72 71 71 70 63 58 58 60 55 56 58 57 56 56
73 75 74 75 76 75 73 72 72 72 71 70 62 57 57 58 55 55 57 56 57 57
75 76 76 76 76 75 73 71 70 69 70 67 64 57 56 56 49 55 51 57 59 58
75 75 75 76 75 73 72 72 72 70 69 68 66 59 55 54 56 48 50 52 54 51
Lifted_Index
-7 -7 -6 -6 -6 -5 -5 -6 -7 -7 -5 -3 -2 -2 -2 -1 1 2 3 3 4 4
-7 -7 -7 -7 -6 -6 -6 -6 -7 -6 -5 -3 -2 -2 -2 -0 1 3 3 4 4 4
-8 -8 -8 -7 -7 -6 -6 -6 -7 -6 -5 -3 -2 -2 -2 -0 2 4 4 4 4 5
-8 -8 -8 -7 -7 -7 -7 -7 -6 -6 -4 -3 -2 -2 -1 0 3 4 5 5 5 5
-7 -7 -7 -7 -7 -7 -7 -7 -6 -6 -5 -4 -3 -2 -1 2 4 5 6 6 6 6
-7 -7 -7 -7 -7 -8 -8 -7 -7 -6 -5 -4 -3 -2 0 3 5 6 7 7 7 7
-8 -8 -8 -8 -8 -8 -8 -8 -7 -6 -5 -4 -3 -1 1 4 7 7 7 7 7 7
-9 -9 -9 -8 -8 -8 -8 -7 -7 -6 -5 -4 -2 -0 2 5 7 8 8 7 7 7
-10 -10 -9 -9 -8 -8 -7 -7 -6 -5 -4 -3 -2 0 2 5 6 8 8 7 7 8
-10 -10 -10 -9 -8 -8 -7 -6 -5 -4 -4 -3 -1 0 2 4 5 7 7 7 7 8
-9 -9 -9 -9 -9 -8 -7 -6 -5 -4 -3 -2 -1 1 2 3 5 6 6 7 7 7
-8 -9 -9 -9 -9 -8 -7 -6 -5 -4 -4 -3 -1 0 2 4 6 7 7 7 7 7
-8 -9 -9 -9 -9 -8 -7 -6 -5 -4 -4 -3 -1 0 2 4 6 7 7 7 7 7
-9 -9 -9 -9 -8 -7 -6 -6 -5 -4 -4 -3 -2 -0 2 4 6 7 7 6 6 7